Deming, NM

9:37 PM MDT on May 20, 2018 (GMT -0600)
Deming Municipal

Weather History for KDMN - February, 2014

Change the Weather History Date:

Tuesday, February 4, 2014

  Actual Average Record
Temperature  
Mean Temperature 40 °F 45 °F  
Max Temperature 51 °F 61 °F 77 °F (1963)
Min Temperature 28 °F 30 °F -1 °F (2011)
Degree Days  
Heating Degree Days 26    
Moisture  
Dew Point 21 °F    
Average Humidity 56    
Maximum Humidity 85    
Minimum Humidity 27    
Precipitation  
Precipitation 0.00 in 0.02 in 0.32 in (1983)
Month to date precipitation T 0.08  
Year to date precipitation T 0.69  
Sea Level Pressure  
Sea Level Pressure 29.92 in    
Wind  
Wind Speed 13 mph (West)    
Max Wind Speed 30 mph    
Max Gust Speed 36 mph    
Visibility 10 miles    
Events      
T = Trace of Precipitation, MM = Missing Value Source: NWS Daily Summary

Daily Weather History Graph

Daily Weather History Graph

Search for Another Location

Airport or City:

Astronomy

Feb. 04, 2014 Rise Set
Actual Time 7:02 AM MST 5:47 PM MST
Civil Twilight 6:37 AM MST 6:12 PM MST
Nautical Twilight 6:08 AM MST 6:42 PM MST
Astronomical Twilight 5:39 AM MST 7:10 PM MST
Moon 10:03 AM MST (2/4) 11:21 PM MST (2/4)
Length of Visible Light 11h 35m
Length of Day
10h 44m
Waxing Crescent, 29% of the Moon is Illuminated
Feb 4
Waxing Crescent
Feb 6
First Quarter
Feb 14
Full
Feb 22
Last Quarter
Mar 1
New

Hourly Weather History & Observations

Time (MST) Temp. Windchill Dew Point Humidity Pressure Visibility Wind Dir Wind Speed Gust Speed Precip Events Conditions
12:53 AM 37.9 °F 27.3 °F 25.0 °F 60% 29.77 in 10.0 mi West 21.9 mph 31.1 mph N/A   Mostly Cloudy
1:53 AM 37.9 °F 30.0 °F 26.1 °F 62% 29.78 in 10.0 mi West 12.7 mph - N/A   Overcast
2:53 AM 35.1 °F 27.4 °F 28.0 °F 76% 29.80 in 10.0 mi West 10.4 mph - N/A   Scattered Clouds
3:53 AM 32.0 °F 22.1 °F 28.0 °F 85% 29.83 in 10.0 mi West 13.8 mph - N/A   Clear
4:53 AM 34.0 °F 23.4 °F 28.0 °F 79% 29.82 in 10.0 mi West 17.3 mph 25.3 mph N/A   Clear
5:53 AM 32.0 °F 23.0 °F 27.0 °F 82% 29.87 in 10.0 mi West 11.5 mph - N/A   Clear
6:53 AM 28.9 °F 23.9 °F 24.1 °F 82% 29.93 in 10.0 mi NW 4.6 mph - N/A   Clear
7:53 AM 32.0 °F - 24.1 °F 73% 29.94 in 10.0 mi Calm Calm - N/A   Clear
8:53 AM 37.9 °F 31.5 °F 24.1 °F 57% 29.94 in 10.0 mi West 9.2 mph - N/A   Clear
9:53 AM 43.0 °F 34.8 °F 21.9 °F 43% 29.96 in 10.0 mi West 18.4 mph 25.3 mph N/A   Clear
10:53 AM 46.0 °F 38.5 °F 21.0 °F 37% 29.95 in 10.0 mi West 19.6 mph 29.9 mph N/A   Clear
11:53 AM 46.9 °F - 19.9 °F 34% 29.94 in 10.0 mi West 19.6 mph 26.5 mph N/A   Partly Cloudy
12:53 PM 48.9 °F - 19.0 °F 31% 29.91 in 10.0 mi West 20.7 mph 32.2 mph N/A   Partly Cloudy
1:53 PM 50.0 °F - 17.1 °F 27% 29.89 in 10.0 mi West 25.3 mph 35.7 mph N/A   Partly Cloudy
2:53 PM 50.0 °F - 17.1 °F 27% 29.89 in 10.0 mi West 23.0 mph 33.4 mph N/A   Clear
3:53 PM 50.0 °F - 17.1 °F 27% 29.91 in 10.0 mi West 19.6 mph 31.1 mph N/A   Clear
4:53 PM 48.9 °F - 18.0 °F 29% 29.91 in 10.0 mi West 20.7 mph 28.8 mph N/A   Clear
5:53 PM 46.0 °F 40.2 °F 17.1 °F 31% 29.94 in 10.0 mi West 12.7 mph - N/A   Clear
6:53 PM 43.0 °F 37.2 °F 17.1 °F 35% 29.98 in 10.0 mi WNW 10.4 mph - N/A   Clear
7:53 PM 41.0 °F 37.1 °F 17.1 °F 38% 29.99 in 10.0 mi WNW 5.8 mph - N/A   Clear
8:53 PM 37.9 °F - 17.1 °F 43% 30.01 in 10.0 mi Calm Calm - N/A   Clear
9:53 PM 34.0 °F 29.8 °F 16.0 °F 48% 30.01 in 10.0 mi West 4.6 mph - N/A   Clear
10:53 PM 33.1 °F 30.0 °F 16.0 °F 50% 30.02 in 10.0 mi West 3.5 mph - N/A   Clear
11:53 PM 28.0 °F 21.7 °F 12.9 °F 53% 30.03 in 10.0 mi SW 5.8 mph - N/A   Clear